AirNav   Everest Fuels
 
 1607 users online  

1B6 Hopedale Industrial Park Airport
Hopedale, Massachusetts, USA

GOING TO HOPEDALE?


FAA INFORMATION EFFECTIVE 25 FEBRUARY 2021

Location

FAA Identifier: 1B6
Lat/Long: 42-06-23.3490N 071-30-36.3240W
42-06.389150N 071-30.605400W
42.1064858,-71.5100900
(estimated)
Elevation: 269 ft. / 82 m (estimated)
Variation: 16W (1995)
From city: 3 miles SE of HOPEDALE, MA
Time zone: UTC -5 (UTC -4 during Daylight Saving Time)
Zip code: 01747

Airport Operations

Airport use: Open to the public
Activation date: 01/1953
Control tower: no
ARTCC: BOSTON CENTER
FSS: BRIDGEPORT FLIGHT SERVICE STATION
NOTAMs facility: BDR (NOTAM-D service available)
Attendance: MON-FRI DAWN-DUSK
Wind indicator: yes
Segmented circle: no
Lights: DUSK-2200.

Airport Communications

CTAF/UNICOM: 122.8
YANKEE APPROACH: 119.0
YANKEE DEPARTURE: 119.0
WX AWOS-3PT at SFZ (11 nm S): 120.775 (401-334-0324)
WX ASOS at OWD (16 nm E): 119.95 (781-762-4314)
WX ASOS at ORH (19 nm NW): PHONE 508-795-7546
  • CLNC DLVY THRU BRIDGEPORT RADIO (BDR) 1-866-293-5149.

Nearby radio navigation aids

VOR radial/distance  VOR name  Freq  Var
PUTr073/17.4PUTNAM VOR/DME117.4014W
PVDr005/23.2PROVIDENCE VOR/DME115.6014W
BOSr253/27.6BOSTON VOR/DME112.7016W
GDMr151/35.9GARDNER VOR/DME110.6014W
ORWr048/39.6NORWICH VOR/DME110.0014W

Airport Services

Fuel available: 100LL
EMERG FUEL ONLY.
Parking: tiedowns
Airframe service: MINOR
Powerplant service: MINOR
Bottled oxygen: NONE
Bulk oxygen: NONE

Runway Information

Runway 18/36

Dimensions: 3172 x 90 ft. / 967 x 27 m
Surface: asphalt, in fair condition
Weight bearing capacity: 
Single wheel: 12.0
Runway edge lights: low intensity
RUNWAY 18  RUNWAY 36
Latitude: 42-06.642583N42-06.135083N
Longitude: 071-30.688367W071-30.522583W
Elevation: 268.0 ft.237.0 ft.
Traffic pattern: leftleft
Runway heading: 182 magnetic, 166 true002 magnetic, 346 true
Displaced threshold: no110 ft.
APCH RATIO 3:1 AT DSPLCD THR.
Markings: basic, in good conditionbasic, in good condition
Runway end identifier lights: no
Obstructions: 20 ft. trees, 400 ft. from runway, 63 ft. both sides of centerline, 12:1 slope to clear
7 FT ROAD 30 FT N FM THR.
20 ft. trees, 600 ft. from runway, 66 ft. right of centerline, 20:1 slope to clear
12 FT ROAD 20 FT FM THR.

Airport Ownership and Management from official FAA records

Ownership: Privately-owned
Owner: HOPEDALE ARPT INDUSTRIAL PARK
1 AIRPORT DRIVE
HOPEDALE, MA 01747
Phone 508-478-1726
Manager: JOSEPH MENFI
HOPEDALE INDUSTRIAL PARK
HOPEDALE, MA 01747
Phone 508-478-1726

Airport Operational Statistics

Aircraft based on the field: 15
Single engine airplanes: 14
Multi engine airplanes: 1
    
Aircraft operations: avg 127/week *
47% local general aviation
45% transient general aviation
5% air taxi
3% military
* for 12-month period ending 30 June 2019

Additional Remarks

ARPT CLSD TO TRANSIENT ACFT SS-SR.
RWY 18, TWO STORY HOUSE 27 FT AGL (291 FT MSL) LCTD APRXLY 400 FT NW RWY THR.
ARPT CLSD TO TRANSIENT STUDENT TRNG.
ARPT CLSD TO JETS & NIGHT LNDGS EXCP PPR CALL 508-478-1726.
WILDLIFE INVOF ARPT.
FOR CD CTC YANKEE APCH AT 860-386-3597

Instrument Procedures

NOTE: All procedures below are presented as PDF files. If you need a reader for these files, you should download the free Adobe Reader.

NOT FOR NAVIGATION. Please procure official charts for flight.
FAA instrument procedures published for use from 25 February 2021 at 0901Z to 25 March 2021 at 0900Z.

 
IAPs - Instrument Approach Procedures
RNAV (GPS)-A   download (191KB)
NOTE: Special Take-Off Minimums/Departure Procedures apply   download (178KB)

Other nearby airports with instrument procedures:

KSFZ - North Central State Airport (11 nm S)
1B9 - Mansfield Municipal Airport (15 nm SE)
KOWD - Norwood Memorial Airport (16 nm E)
KORH - Worcester Regional Airport (19 nm NW)
6B6 - Minute Man Air Field (21 nm N)
 
Loc | Ops | Rwys | IFR | FBO | Links
Com | Nav | Svcs | Stats | Notes
Area around 1B6 (Hopedale Industrial Park Airport)
 
Road maps at: MapQuest Bing Google
 
Aerial photo
WARNING: Photo may not be current or correct
Aerial photo of 1B6 (Hopedale Industrial Park Airport)
Photo by Karl Swenson
Photo taken 07-Aug-2010
from 2500 feet facing North.
Rwy 18 Top
Rwy 36 Bottom

Do you have a better or more recent aerial photo of Hopedale Industrial Park Airport that you would like to share? If so, please send us your photo.

 
Sectional chart

 
Airport distance calculator
Flying to Hopedale Industrial Park Airport? Find the distance to fly.

From to 1B6

Sunrise and sunset
Times for 03-Mar-2021
 Local
(UTC-5)
 Zulu
(UTC)
Morning civil twilight05:5110:51
Sunrise06:1911:19
Sunset17:3722:37
Evening civil twilight18:0523:05

Current date and time
Zulu (UTC)  03-Mar-2021 17:28:34
Local (UTC-5)  03-Mar-2021 12:28:34
 
METAR
KSFZ 
11nm S 
031656Z AUTO 28013G18KT 10SM CLR 06/M09 A2980 RMK AO2 SLP039 T00611089 $
KOWD 
16nm E 
031653Z 28010KT 10SM CLR 08/M09 A2980 RMK AO2 SLP091 T00781089
KORH 
19nm NW 
031654Z 28013G22KT 10SM CLR 03/M09 A2977 RMK AO2 SLP092 T00331089
KMQE 
19nm E 
031651Z AUTO 27009G16KT 04/M09 A2976 RMK AO1 SLP096 T00441094
TAF
KORH 
19nm NW 
031420Z 0314/0412 28011G18KT P6SM FEW050 FM032200 28008KT P6SM SCT120 FM040600 32007KT P6SM SCT100 FM041100 31008KT P6SM FEW200
NOTAMs
Click for the latest NOTAMs
NOTAMs are issued by the DoD/FAA and will open in a separate window not controlled by AirNav.

 

 
 

Would you like to see your business listed on this page?

 If your business provides an interesting product or service to pilots, flight crews, aircraft, or users of the Hopedale Industrial Park Airport, you should consider listing it here.  To start the listing process, click on the button below
 
Add a business
 

Other Pages about Hopedale Industrial Park Airport

Update a link
 
Copyright © AirNav, LLC. All rights reserved. Privacy Policy  Contact